SB KEPS @ AMSAT $ORB13318.N 2Line Orbital Elements 13318.AMSAT
HR AMSAT ORBITAL ELEMENTS FOR AMATEUR SATELLITES IN NASA FORMAT FROM WA5QGD FORT WORTH,TX November 14, 2013 BID: ORB13318.N
DECODE 2-LINE ELSETS WITH THE FOLLOWING KEY: 1 AAAAAU 00 0 0 BBBBB.BBBBBBBB .CCCCCCCC 00000-0 00000-0 0 DDDZ 2 AAAAA EEE.EEEE FFF.FFFF GGGGGGG HHH.HHHH III.IIII JJ.JJJJJJJJKKKKKZ KEY: A-CATALOGNUM B-EPOCHTIME C-DECAY D-ELSETNUM E-INCLINATION F-RAAN G-ECCENTRICITY H-ARGPERIGEE I-MNANOM J-MNMOTION K-ORBITNUM Z-CHECKSUM
TO ALL RADIO AMATEURS BT
AO-07 1 07530U 74089B 13318.22330133 -.00000043 00000-0 25648-5 0 8230 2 07530 101.4479 302.3654 0011962 356.6539 072.3373 12.53599962784580 FO-29 1 24278U 96046B 13318.78288131 -.00000029 00000-0 38986-5 0 2402 2 24278 098.5348 357.0624 0351362 133.7490 337.6236 13.53009598851676 SO-33 1 25509U 98061B 13317.40983380 .00000596 00000-0 10747-3 0 6253 2 25509 031.4321 302.6712 0350514 024.4340 137.4109 14.29223936786257 RS-22 1 27939U 03042A 13318.76196641 .00001222 00000-0 23773-3 0 9470 2 27939 097.7978 138.7885 0014437 069.6882 290.5869 14.64668572541331 VO-52 1 28650U 05017B 13318.81083051 .00002222 00000-0 26923-3 0 5793 2 28650 097.5627 329.6788 0026795 142.2149 270.4798 14.84326440461424 HO-68 1 36122U 09072B 13318.84755727 -.00000044 00000-0 00000 0 0 622 2 36122 100.2843 011.9571 0007295 011.9091 348.2181 13.16308684188231 UO-11 1 14781U 84021B 13317.96327973 .00000979 00000-0 13277-3 0 3359 2 14781 097.8844 016.9904 0009722 155.1995 204.9687 14.81102973596100 AO-16 1 20439U 90005D 13318.44166957 .00000243 00000-0 10617-3 0 8839 2 20439 098.4868 255.0739 0011967 077.1293 056.1348 14.32230310243743 LO-19 1 20442U 90005G 13318.09589245 .00000244 00000-0 10592-3 0 8229 2 20442 098.4567 256.0492 0012889 068.5804 357.4662 14.32437937243892 AO-27 1 22825U 93061C 13318.48823888 .00000196 00000-0 93854-4 0 5268 2 22825 098.6366 261.0371 0008154 200.0908 295.3633 14.29611682 50103 IO-26 1 22826U 93061D 13318.78763780 .00000224 00000-0 10422-3 0 2815 2 22826 098.6310 261.5908 0008849 192.5881 199.5855 14.29901249 50281 GO-32 1 25397U 98043D 13318.49901554 .00000102 00000-0 63232-4 0 2067 2 25397 098.4380 279.8777 0001278 163.5809 334.4264 14.23373811797324 NO-44 1 26931U 01043C 13317.78636383 .00000215 00000-0 11527-3 0 4653 2 26931 067.0524 233.8459 0006812 263.1031 154.5907 14.29984996632816 SO-50 1 27607U 02058C 13318.77574571 .00001021 00000-0 17754-3 0 2237 2 27607 064.5552 165.6313 0032325 101.7718 025.1609 14.73180639585896 CO-55 1 27844U 03031E 13318.52335859 .00000390 00000-0 19890-3 0 7864 2 27844 098.7004 325.4158 0010118 169.7403 341.8904 14.21308168538081 CO-57 1 27848U 03031J 13317.84349773 .00000297 00000-0 15709-3 0 7278 2 27848 098.7094 324.3390 0009892 177.5581 304.8928 14.21022157537918 AO-51 1 28375U 04025K 13318.83638010 .00000395 00000-0 13083-3 0 7017 2 28375 098.2232 268.4036 0082061 280.4470 111.1891 14.41204165493033 CP3 1 31129U 07012N 13317.88118005 .00001937 00000-0 44150-3 0 5984 2 31129 097.9106 302.1915 0098737 322.1069 075.3193 14.53957990348744 CO-65 1 32785U 08021C 13318.11759330 .00001982 00000-0 24224-3 0 7873 2 32785 097.7330 011.2481 0014585 170.4677 222.0771 14.84294034300113 PRISM 1 33493U 09002B 13318.86979886 .00005902 00000-0 66392-3 0 3652 2 33493 098.2333 121.0278 0018924 064.5995 295.7172 14.86956470260309 SOHLA-1 1 33496U 09002E 13318.12918175 .00000800 00000-0 14042-3 0 1978 2 33496 098.1503 073.9020 0006437 194.7629 289.9740 14.70439534257904 SO-67 1 35870U 09049F 13318.87340399 .00010038 00000-0 36125-3 0 6117 2 35870 097.1815 342.2824 0003156 110.9605 004.5739 15.28780107231269 TISAT-1 1 36799U 10035E 13318.78855930 .00004222 00000-0 51339-3 0 6300 2 36799 098.0293 044.3771 0013285 302.1549 057.8366 14.83964126180903 STUDSAT 1 36801U 10035G 13318.41382567 .00014439 00000-0 14827-2 0 7138 2 36801 098.0432 048.6882 0010168 276.6041 145.4362 14.90455951181079 ALMASAT-1 1 38078U 12006B 13318.61170524 .00042229 00000-0 96403-3 0 7911 2 38078 069.4788 210.0097 0664202 313.2391 041.4927 14.33262516 90729 XATCOBEO 1 38082U 12006F 13318.74492030 .00081148 44714-5 12418-2 0 6751 2 38082 069.4695 164.0653 0484137 287.9675 066.9134 14.79598462 91990 SOMP 1 39135U 13015F 13318.74562458 .00007511 00000-0 57803-3 0 3712 2 39135 064.8765 095.4238 0006563 330.4207 029.7041 15.01447033 31420 CUBEBUG-1 1 39153U 13018D 13318.84452810 .00002189 00000-0 31901-3 0 5805 2 39153 098.0638 034.5192 0017404 323.6079 036.3932 14.76777434 29914 ESTCUBE-1 1 39161U 13021C 13318.82370535 .00001868 00000-0 32503-3 0 5496 2 39161 098.1182 036.2209 0010431 003.7481 356.3817 14.69252306 28118 NOAA-10 1 16969U 86073A 13318.53771534 .00000147 00000-0 77081-4 0 5687 2 16969 098.5327 343.0095 0012910 160.8615 353.1126 14.27681189413399 NOAA-11 1 19531U 88089A 13318.34396036 .00000140 00000-0 94190-4 0 5912 2 19531 098.7017 037.7669 0011372 187.2210 172.8802 14.15037345297353 NOAA-12 1 21263U 91032A 13318.54083352 .00000098 00000-0 59702-4 0 462 2 21263 098.6848 342.6485 0014784 140.3192 022.3770 14.25598728169979 MET-3/5 1 21655U 91056A 13318.13365743 -.00000381 00000-0 -10230-2 0 8315 2 21655 082.5536 148.3675 0014323 114.1451 246.1171 13.17054213 69671 MET-2/21 1 22782U 93055A 13318.54564829 .00000036 00000-0 19302-4 0 8966 2 22782 082.5484 343.6171 0023388 145.3239 008.5375 13.83715570 20437 OKEAN-4 1 23317U 94066A 13318.83895719 .00002056 00000-0 23853-3 0 3763 2 23317 082.5392 268.7553 0022837 089.0940 007.5026 14.84773201 31297 NOAA-14 1 23455U 94089A 13318.46137032 .00000099 00000-0 75012-4 0 5242 2 23455 098.7954 040.5657 0008398 291.4563 199.0487 14.13929086973604 NOAA-15 1 25338U 98030A 13318.53000703 .00000228 00000-0 11569-3 0 9510 2 25338 098.7374 308.0200 0011470 055.8214 049.5590 14.25291323806268 RESURS 1 25394U 98043A 13317.98071677 .00000077 00000-0 51288-4 0 5164 2 25394 098.3833 286.7866 0002047 139.4471 240.0146 14.24345660797683 FENGYUN1 1 25730U 99025A 13317.78097495 .00003068 00000-0 17289-2 0 94 2 25730 098.8924 275.5875 0027878 354.2091 138.3733 14.10895664747138 OKEAN-0 1 25860U 99039A 13317.99984131 .00000861 00000-0 13618-3 0 965 2 25860 098.0127 278.6216 0001806 081.3349 349.0185 14.74781321770434 NOAA-16 1 26536U 00055A 13318.47640735 .00000127 00000-0 92577-4 0 4397 2 26536 099.0229 012.5835 0011322 075.1363 039.6825 14.12942708677790 NOAA-17 1 27453U 02032A 13318.53147927 .00000228 00000-0 11562-3 0 3446 2 27453 098.3109 324.6308 0012865 086.5503 081.2658 14.24641506592120 NOAA-18 1 28654U 05018A 13318.53670203 .00000229 00000-0 15026-3 0 8350 2 28654 099.1215 289.0691 0014960 144.0715 315.6123 14.11891206437278 NOAA-19 1 33591U 09005A 13318.52432228 .00000235 00000-0 15349-3 0 74 2 33591 098.9207 259.5059 0014179 009.7506 118.3542 14.11581839245705 HUBBLE 1 20580U 90037B 13317.58748575 .00002523 00000-0 16535-3 0 3739 2 20580 028.4717 013.0824 0003401 139.4906 341.8939 15.04170264 92215 ISS 1 25544U 98067A 13318.91561578 .00015946 00000-0 28509-3 0 216 2 25544 051.6491 081.5640 0001070 106.8112 353.2714 15.50172001858085 CO-58 1 28895U 05043F 13318.04677884 .00001073 00000-0 22581-3 0 6207 2 28895 097.8502 165.9251 0016753 333.2491 026.7845 14.61331226428826 FALCON 1 30776U 07006E 13318.57543072 .00010099 00000-0 57446-3 0 7373 2 30776 035.4316 358.2837 0002059 193.9457 297.2263 15.12180536368186 MAST 1 31126U 07012K 13318.46021407 .00001158 00000-0 26579-3 0 9002 2 31126 097.8934 305.9127 0091615 304.4731 211.1840 14.54781859349168 CAPE1 1 31130U 07012P 13318.72672186 .00001929 00000-0 44151-3 0 9037 2 31130 097.9117 302.5988 0099173 320.5765 038.8244 14.53765118348641 COMPASS 1 32787U 08021E 13318.72015843 .00003589 00000-0 41405-3 0 7804 2 32787 097.7348 013.2822 0014967 163.9093 196.2601 14.86185718300314 AAUSAT2 1 32788U 08021F 13318.81395652 .00004880 00000-0 55362-3 0 7637 2 32788 097.7357 014.1314 0014569 162.7562 197.4152 14.86709554300377 DO-64 1 32789U 08021G 13318.42402900 .00007758 00000-0 81072-3 0 7993 2 32789 097.7526 018.4790 0013863 155.8432 268.2267 14.89877682300483 CO-66 1 32791U 08021J 13317.84406444 .00003328 00000-0 39373-3 0 7556 2 32791 097.7352 011.5841 0015414 168.4804 244.1645 14.85185026300080 RS-30 1 32953U 08025A 13318.81345361 .00000010 00000-0 00000 0 0 3819 2 32953 082.5039 334.5268 0017449 264.6547 095.2543 12.43039290248624 METEOR-M 1 35865U 09049A 13318.67410498 .00000002 00000-0 20404-4 0 9855 2 35865 098.5835 007.2517 0002866 017.5919 342.5354 14.21897467215859 RS-38 1 35869U 09049E 13318.89197422 .00000074 00000-0 52620-4 0 9430 2 35869 098.5780 007.3341 0004852 008.3385 351.7859 14.22155824215914 JUGNU 1 37839U 11058B 13318.52019366 .00000524 00000-0 13820-3 0 5010 2 37839 019.9611 115.8561 0018912 139.2404 277.5894 14.12203526108175 SRMSAT 1 37841U 11058D 13318.20462963 .00000440 00000-0 97895-4 0 5004 2 37841 019.9713 132.7968 0011856 083.1383 260.9364 14.10264956107970 RAX-2 1 37853U 11061D 13318.31195609 .00012491 00000-0 90969-3 0 6445 2 37853 101.6996 241.5551 0229707 316.7022 198.9458 14.85264234110714 AUBIESAT 1 37854U 11061E 13318.65443439 .00015427 00000-0 10943-2 0 6300 2 37854 101.7038 243.2602 0228878 313.8478 164.3392 14.86191023110798 HRBE 1 37855U 11061F 13318.29856815 .00013643 00000-0 97672-3 0 6388 2 37855 101.7038 242.3748 0230209 315.6117 196.1329 14.85735245110726 RS-39 1 38051U 11062C 13318.74095971 .00038343 00000-0 10181-2 0 9720 2 38051 051.6342 201.5727 0011517 097.9055 007.8050 15.37839476100907 E-STAR 1 38079U 12006C 13318.60332036 .00066280 39611-5 11423-2 0 6004 2 38079 069.4681 177.4882 0543948 295.4935 088.1437 14.64687357 91619 GOLIAT 1 38085U 12006J 13318.72341275 .00062324 38514-5 10837-2 0 5372 2 38085 069.4770 180.7576 0556944 297.1176 057.4185 14.61781848 91535 HORYU-2 1 38340U 12025D 13318.35011879 .00002799 00000-0 46011-3 0 6694 2 38340 098.2338 267.4719 0013388 133.0276 227.2009 14.71374388 80190 RS-40 1 38736U 12041D 13318.36267432 .00000010 00000-0 00000 0 0 4247 2 38736 082.4798 061.4873 0021020 001.6803 358.4356 12.42873158 58906 PROITERES 1 38756U 12047B 13318.78338690 .00001306 00000-0 20456-3 0 3010 2 38756 098.2436 038.5185 0012665 353.2919 006.8107 14.74434860 63580 RAIKO 1 38852U 98067CN 13218.07382584 .24681979 12625-4 36599-3 0 3409 2 38852 051.6160 184.0336 0004489 261.9162 100.6538 16.48474690 47849 BEESAT-3 1 39134U 13015E 13317.86962954 .00009207 00000-0 71901-3 0 4213 2 39134 064.8643 098.1048 0005360 326.9654 033.1136 15.01588011 31294 BEESAT-2 1 39136U 13015G 13318.81050977 .00007831 00000-0 60280-3 0 4112 2 39136 064.8751 095.2052 0006509 328.6896 031.4333 15.01440349 31439 /EX
participants (1)
-
Ray Hoad